When you browse on this site, cookies collect data to enhance your experience and personalize the content and advertising you see.
Visit our Privacy Policy to learn more. By continuing to use the site, you agree to this use of cookies and data.
  • In Romania
  • List of Countries
  • For 7 days
  • Water Temperature
  • Weather Map
  • Weather Widgets
  • user-avatar
    Login

    Hourly Weather Perth

    Today, 21 August, Wednesday

    Time Temperature Precipitation Wind Pressure Humidity
    00:00 +13°C° 0 mm 3 mps 770 mmHg 59%
    01:00 +13°C° 0 mm 4 mps 769 mmHg 56%
    02:00 +13°C° 0 mm 4 mps 769 mmHg 50%
    03:00 +12°C° 0 mm 4 mps 769 mmHg 49%
    04:00 +12°C° 0 mm 4 mps 769 mmHg 48%
    05:00 +11°C° 0 mm 3 mps 768 mmHg 47%
    06:00 +12°C° 0 mm 3 mps 769 mmHg 48%
    07:00 +12°C° 0 mm 4 mps 769 mmHg 48%
    08:00 +12°C° 0 mm 4 mps 769 mmHg 49%
    09:00 +14°C° 0 mm 4 mps 769 mmHg 47%
    10:00 +16°C° 0 mm 5 mps 768 mmHg 45%
    11:00 +19°C° 0 mm 5 mps 768 mmHg 43%
    12:00 +20°C° 0 mm 5 mps 767 mmHg 43%
    13:00 +21°C° 0 mm 4 mps 766 mmHg 43%
    14:00 +22°C° 0 mm 4 mps 765 mmHg 44%
    15:00 +21°C° 0 mm 4 mps 765 mmHg 47%
    16:00 +21°C° 0 mm 3 mps 765 mmHg 51%
    17:00 +20°C° 0 mm 3 mps 765 mmHg 54%
    18:00 +19°C° 0 mm 3 mps 765 mmHg 57%
    19:00 +18°C° 0 mm 3 mps 765 mmHg 59%
    20:00 +16°C° 0 mm 3 mps 765 mmHg 61%
    21:00 +16°C° 0 mm 3 mps 765 mmHg 59%
    22:00 +14°C° 0 mm 3 mps 764 mmHg 57%
    23:00 +14°C° 0 mm 3 mps 764 mmHg 55%

    Tomorrow, 22 August, Thursday

    Time Temperature Precipitation Wind Pressure Humidity
    00:00 +13°C° 0 mm 3 mps 764 mmHg 51%
    01:00 +13°C° 0 mm 4 mps 763 mmHg 47%
    02:00 +13°C° 0 mm 4 mps 763 mmHg 43%
    03:00 +13°C° 0 mm 4 mps 762 mmHg 41%
    04:00 +13°C° 0 mm 4 mps 762 mmHg 39%
    05:00 +13°C° 0 mm 4 mps 762 mmHg 37%
    06:00 +13°C° 0 mm 4 mps 762 mmHg 39%
    07:00 +13°C° 0 mm 4 mps 762 mmHg 41%
    08:00 +13°C° 0 mm 4 mps 761 mmHg 42%
    09:00 +15°C° 0 mm 4 mps 761 mmHg 42%
    10:00 +17°C° 0 mm 5 mps 761 mmHg 41%
    11:00 +20°C° 0 mm 5 mps 761 mmHg 41%
    12:00 +21°C° 0 mm 5 mps 760 mmHg 41%
    13:00 +21°C° 0 mm 6 mps 760 mmHg 41%
    14:00 +22°C° 0 mm 7 mps 759 mmHg 41%
    15:00 +21°C° 0 mm 6 mps 759 mmHg 46%
    16:00 +20°C° 0 mm 6 mps 759 mmHg 51%
    17:00 +19°C° 0 mm 6 mps 759 mmHg 55%
    18:00 +19°C° 1.2 mm 6 mps 759 mmHg 65%
    19:00 +17°C° 1.2 mm 6 mps 759 mmHg 74%
    20:00 +16°C° 1.2 mm 7 mps 760 mmHg 83%
    21:00 +16°C° 0.7 mm 6 mps 760 mmHg 85%
    22:00 +15°C° 0.7 mm 5 mps 761 mmHg 87%
    23:00 +14°C° 0.7 mm 4 mps 761 mmHg 89%

    Day after tomorrow, 23 August, Friday

    Time Temperature Precipitation Wind Pressure Humidity
    00:00 +14°C° 1.2 mm 5 mps 761 mmHg 87%
    01:00 +14°C° 1.2 mm 6 mps 761 mmHg 84%
    02:00 +13°C° 1.2 mm 6 mps 761 mmHg 81%
    03:00 +13°C° 0.1 mm 6 mps 762 mmHg 79%
    04:00 +12°C° 0.1 mm 5 mps 762 mmHg 77%
    05:00 +12°C° 0.1 mm 5 mps 763 mmHg 75%
    06:00 +12°C° 0 mm 4 mps 763 mmHg 75%
    07:00 +12°C° 0 mm 3 mps 764 mmHg 74%
    08:00 +11°C° 0 mm 3 mps 764 mmHg 73%
    09:00 +12°C° 0 mm 3 mps 765 mmHg 70%
    10:00 +12°C° 0 mm 4 mps 765 mmHg 67%
    11:00 +13°C° 0 mm 4 mps 766 mmHg 64%
    12:00 +13°C° 0 mm 4 mps 765 mmHg 60%
    13:00 +13°C° 0 mm 4 mps 765 mmHg 56%
    14:00 +14°C° 0 mm 5 mps 765 mmHg 52%
    15:00 +13°C° 0 mm 4 mps 765 mmHg 54%
    16:00 +13°C° 0 mm 4 mps 766 mmHg 55%
    17:00 +13°C° 0 mm 3 mps 766 mmHg 57%
    18:00 +12°C° 0 mm 3 mps 767 mmHg 58%
    19:00 +11°C° 0 mm 3 mps 767 mmHg 59%
    20:00 +10°C° 0 mm 3 mps 768 mmHg 59%
    21:00 +9°C° 0 mm 3 mps 768 mmHg 62%
    22:00 +9°C° 0 mm 3 mps 769 mmHg 65%
    23:00 +8°C° 0 mm 3 mps 769 mmHg 68%

    24 August, Saturday

    Time Temperature Precipitation Wind Pressure Humidity
    00:00 +8°C° 0 mm 3 mps 769 mmHg 71%
    01:00 +7°C° 0 mm 4 mps 769 mmHg 73%
    02:00 +6°C° 0 mm 4 mps 768 mmHg 75%
    03:00 +6°C° 0 mm 4 mps 769 mmHg 75%
    04:00 +6°C° 0 mm 4 mps 769 mmHg 74%
    05:00 +6°C° 0 mm 4 mps 769 mmHg 74%
    06:00 +6°C° 0 mm 4 mps 769 mmHg 72%
    07:00 +6°C° 0 mm 4 mps 769 mmHg 71%
    08:00 +6°C° 0 mm 4 mps 769 mmHg 69%
    09:00 +8°C° 0 mm 4 mps 769 mmHg 63%
    10:00 +11°C° 0 mm 4 mps 769 mmHg 57%
    11:00 +13°C° 0 mm 4 mps 769 mmHg 51%
    12:00 +13°C° 0 mm 4 mps 768 mmHg 50%
    13:00 +14°C° 0 mm 3 mps 767 mmHg 49%
    14:00 +16°C° 0 mm 3 mps 767 mmHg 47%
    15:00 +15°C° 0 mm 2 mps 767 mmHg 49%
    16:00 +15°C° 0 mm 2 mps 767 mmHg 52%
    17:00 +15°C° 0 mm 2 mps 766 mmHg 54%
    18:00 +14°C° 0 mm 2 mps 767 mmHg 56%
    19:00 +13°C° 0 mm 2 mps 767 mmHg 57%
    20:00 +13°C° 0 mm 2 mps 767 mmHg 59%
    21:00 +12°C° 0 mm 2 mps 767 mmHg 62%
    22:00 +10°C° 0 mm 2 mps 767 mmHg 65%
    23:00 +10°C° 0 mm 2 mps 767 mmHg 67%

    25 August, Sunday

    Time Temperature Precipitation Wind Pressure Humidity
    00:00 +9°C° 0 mm 2 mps 767 mmHg 69%
    01:00 +8°C° 0 mm 3 mps 766 mmHg 71%
    02:00 +8°C° 0 mm 3 mps 766 mmHg 72%
    03:00 +8°C° 0 mm 2 mps 766 mmHg 74%
    04:00 +7°C° 0 mm 2 mps 766 mmHg 75%
    05:00 +7°C° 0 mm 2 mps 766 mmHg 77%
    06:00 +8°C° 0 mm 2 mps 766 mmHg 74%
    07:00 +8°C° 0 mm 2 mps 766 mmHg 71%
    08:00 +9°C° 0 mm 2 mps 767 mmHg 68%
    09:00 +12°C° 0 mm 1 mps 767 mmHg 62%
    10:00 +14°C° 0 mm 1 mps 767 mmHg 56%
    11:00 +15°C° 0 mm 1 mps 766 mmHg 50%
    12:00 +16°C° 0 mm 2 mps 766 mmHg 49%
    13:00 +16°C° 0 mm 2 mps 765 mmHg 48%
    14:00 +17°C° 0 mm 3 mps 765 mmHg 47%
    15:00 +16°C° 0 mm 3 mps 765 mmHg 50%
    16:00 +16°C° 0 mm 3 mps 765 mmHg 53%
    17:00 +16°C° 0 mm 3 mps 765 mmHg 56%
    18:00 +14°C° 0 mm 3 mps 766 mmHg 59%
    19:00 +13°C° 0 mm 4 mps 766 mmHg 62%
    20:00 +12°C° 0 mm 4 mps 767 mmHg 65%
    21:00 +11°C° 0 mm 3 mps 767 mmHg 68%
    22:00 +10°C° 0 mm 3 mps 767 mmHg 71%
    23:00 +10°C° 0 mm 3 mps 767 mmHg 75%

    26 August, Monday

    Time Temperature Precipitation Wind Pressure Humidity
    00:00 +9°C° 0 mm 3 mps 767 mmHg 75%
    01:00 +9°C° 0 mm 3 mps 767 mmHg 75%
    02:00 +9°C° 0 mm 2 mps 767 mmHg 75%
    03:00 +9°C° 0 mm 3 mps 767 mmHg 76%
    04:00 +8°C° 0 mm 3 mps 767 mmHg 77%
    05:00 +8°C° 0 mm 3 mps 767 mmHg 78%
    06:00 +9°C° 0 mm 3 mps 767 mmHg 76%
    07:00 +9°C° 0 mm 3 mps 767 mmHg 74%
    08:00 +9°C° 0 mm 3 mps 767 mmHg 72%
    09:00 +11°C° 0 mm 3 mps 767 mmHg 64%
    10:00 +14°C° 0 mm 3 mps 767 mmHg 56%
    11:00 +17°C° 0 mm 4 mps 767 mmHg 47%
    12:00 +17°C° 0 mm 3 mps 766 mmHg 45%
    13:00 +18°C° 0 mm 3 mps 765 mmHg 44%
    14:00 +19°C° 0 mm 3 mps 764 mmHg 42%
    15:00 +18°C° 0 mm 3 mps 764 mmHg 46%
    16:00 +18°C° 0 mm 3 mps 764 mmHg 50%
    17:00 +17°C° 0 mm 3 mps 764 mmHg 54%
    18:00 +16°C° 0 mm 3 mps 764 mmHg 58%
    19:00 +14°C° 0 mm 3 mps 764 mmHg 61%
    20:00 +12°C° 0 mm 3 mps 765 mmHg 64%
    21:00 +12°C° 0 mm 3 mps 764 mmHg 64%
    22:00 +11°C° 0 mm 3 mps 764 mmHg 63%
    23:00 +11°C° 0 mm 3 mps 764 mmHg 62%
    Show more